Theta_e
318 318 324 322 324 323 320 320 321 321 322 323 324 324 324 324 324 324 321 323 324 324 325 324 323 323 323 324 324 325 323 323 319 323 326 328 328 325 326 324 324 322 320
316 319 321 323 323 323 321 320 322 321 323 324 325 325 325 324 323 324 324 323 323 322 323 324 324 325 323 324 325 324 323 324 322 320 324 325 325 325 324 322 324 323 319
316 318 321 321 322 322 319 320 322 322 324 325 325 324 325 324 323 323 323 322 322 322 323 324 324 324 323 324 324 324 324 325 323 322 321 322 322 322 319 319 318 316 318
315 319 319 320 321 322 321 321 322 323 325 324 325 327 326 325 325 325 323 321 321 322 323 325 325 325 323 323 323 323 324 323 322 321 320 318 317 316 316 315 314 316 315
314 319 318 318 321 323 323 324 323 323 324 325 327 327 326 326 327 326 325 324 323 323 324 325 325 324 321 322 325 323 323 321 321 318 315 314 313 312 309 311 312 313 314
314 318 320 319 321 322 322 322 324 323 319 322 324 324 324 325 309 313 322 325 324 323 323 324 323 320 318 315 317 317 320 319 316 315 312 313 311 311 311 310 311 311 310
314 318 319 321 321 320 321 321 320 317 316 315 317 319 319 319 307 309 314 325 325 324 323 324 325 326 321 324 313 312 313 311 314 316 313 312 312 313 313 311 311 311 310
315 317 317 320 319 318 317 317 317 314 314 311 312 312 315 316 306 308 311 325 324 323 323 323 324 323 323 319 316 315 314 315 316 317 314 314 314 315 316 315 313 311 311
315 316 316 320 319 317 315 316 315 313 311 311 310 309 311 311 303 304 316 321 321 320 321 320 320 318 308 304 315 312 307 304 303 303 306 305 303 303 310 314 309 307 302
315 316 315 318 318 317 314 315 315 313 312 311 309 308 305 304 302 305 314 319 316 314 314 316 308 312 299 301 313 312 309 305 302 301 299 297 299 300 302 305 304 299 297
315 316 315 315 316 317 315 316 316 315 313 310 309 307 305 303 299 302 306 315 314 310 311 311 306 297 300 300 304 310 308 307 302 306 306 307 308 306 305 305 303 303 301
313 314 314 314 317 319 317 316 317 315 313 311 309 306 305 302 298 297 302 304 306 310 309 309 302 297 297 298 302 296 297 302 305 307 307 305 307 305 303 302 303 304 304
311 311 311 314 316 319 318 316 315 315 313 313 312 309 310 305 298 295 296 298 301 308 308 303 295 294 294 294 294 295 298 303 308 305 303 302 301 302 301 301 301 303 304
310 309 309 314 314 319 320 319 318 315 314 313 313 311 311 308 299 294 299 300 300 303 300 296 296 295 295 294 293 297 301 305 307 304 300 300 299 298 298 299 298 300 299
310 310 310 313 316 318 320 320 319 318 317 315 315 314 312 310 307 296 297 300 300 300 295 293 291 291 293 294 293 295 301 307 303 299 298 297 297 297 297 298 297 297 295
311 312 311 311 316 318 317 313 297 306 302 303 302 309 312 308 299 295 294 296 295 294 296 294 292 291 292 296 300 301 303 301 299 299 297 296 297 297 297 296 297 293 291
314 313 311 311 315 316 316 316 312 303 297 299 299 300 302 305 297 295 293 294 293 296 299 298 297 296 295 298 301 303 301 301 299 299 298 296 297 296 295 295 296 293 291
315 306 312 312 314 315 316 316 316 313 310 307 296 297 295 296 297 295 293 294 298 299 303 304 304 303 303 303 302 301 301 298 297 297 297 297 295 297 296 295 293 290 290
316 315 314 313 315 313 316 316 315 314 313 307 300 295 291 291 292 292 292 303 303 307 305 304 305 307 306 305 302 302 300 300 299 298 297 297 299 297 294 294 291 288 288
317 308 311 314 313 314 314 314 314 313 311 310 306 306 294 296 298 297 298 304 302 305 307 307 305 304 303 302 301 300 299 298 298 298 298 299 298 295 295 293 291 290 289
319 312 305 315 313 314 314 314 314 313 312 310 310 307 294 302 302 301 302 303 303 302 303 306 306 303 303 302 301 301 300 299 298 298 299 298 297 295 293 292 291 291 288
319 316 314 315 316 314 313 314 314 313 312 312 311 307 291 304 305 303 304 306 307 305 306 306 305 305 304 303 302 300 299 297 298 298 297 296 296 295 293 293 291 288 288
320 318 316 316 315 307 310 314 313 313 312 311 311 309 299 303 307 305 305 306 305 305 306 306 305 305 304 303 302 301 299 298 299 299 296 296 296 295 293 289 288 287 285
320 319 317 317 316 313 313 314 314 305 312 311 309 310 306 305 306 306 305 305 308 307 307 307 306 304 301 299 298 299 299 301 300 299 298 296 294 292 290 289 287 285 282
319 319 317 316 315 314 314 314 314 313 312 312 309 308 310 308 307 306 305 307 306 304 304 305 303 301 299 298 298 296 290 289 297 293 297 294 292 290 289 287 285 283 282
317 319 317 316 315 315 315 314 316 316 314 310 307 305 305 306 304 305 305 305 304 301 299 299 298 297 297 297 295 290 289 289 291 289 293 291 289 288 287 285 284 283 281
Wind_Speed
5 4 4 3 4 4 4 3 3 2 1 5 5 6 6 7 6 8 7 8 11 9 8 9 8 7 7 7 7 7 8 7 8 4 3 5 5 6 4 3 3 4 4
6 6 6 5 5 5 4 4 4 4 3 5 5 6 6 7 7 9 8 9 11 9 8 9 10 7 8 7 7 10 7 5 8 10 4 3 3 3 4 4 3 3 4
6 7 5 5 6 5 3 3 5 4 5 6 6 6 7 8 8 7 8 10 9 9 7 8 9 10 9 8 8 8 7 6 5 5 3 2 2 2 3 2 2 1 2
7 7 6 4 6 5 4 3 4 4 5 5 5 6 6 6 8 8 9 8 9 7 6 8 8 8 11 10 9 8 8 7 6 4 3 3 2 2 2 3 0 1 3
7 7 6 5 6 5 5 4 5 4 4 5 7 6 6 6 6 9 8 7 8 7 7 8 7 7 10 9 7 6 7 5 4 3 3 2 2 2 2 2 3 1 2
8 7 6 6 6 6 5 5 5 5 5 5 6 7 6 4 11 11 9 7 7 7 8 8 9 10 11 10 8 6 5 6 5 4 3 3 2 2 3 3 3 1 2
9 7 7 6 6 6 6 5 6 6 5 5 5 6 5 6 14 13 11 7 6 6 7 8 8 6 8 6 5 6 7 9 6 6 6 4 4 6 4 3 3 3 2
9 8 7 6 7 6 7 6 4 4 5 5 6 6 6 5 14 14 11 7 6 6 7 8 8 10 7 6 5 4 1 5 6 4 6 6 5 6 6 5 6 3 2
11 10 7 7 7 7 7 7 6 6 4 3 4 7 7 4 7 10 8 6 6 6 5 5 7 7 8 10 6 6 6 5 5 7 9 8 6 7 6 5 3 4 2
13 12 9 9 7 7 7 7 5 5 5 5 5 5 8 6 7 10 8 4 5 4 3 4 8 8 11 11 8 7 7 5 5 4 5 7 6 7 9 6 5 4 3
14 12 10 9 9 8 7 4 6 5 6 5 6 4 6 6 6 10 11 5 6 5 5 4 3 7 10 12 10 6 6 7 5 6 5 5 5 6 4 5 5 6 3
14 13 12 10 9 7 9 6 6 7 7 6 5 3 2 4 6 7 10 9 7 7 6 4 5 8 11 11 8 11 12 9 5 6 7 4 6 5 4 5 6 6 5
13 14 12 11 10 10 10 7 5 6 6 5 5 4 4 3 3 5 8 9 9 5 5 7 12 9 13 10 10 12 9 6 6 7 6 4 3 4 4 4 6 6 8
12 12 11 12 9 10 9 9 8 6 5 5 5 5 4 4 4 2 3 3 6 5 8 6 6 6 8 7 6 5 5 5 7 8 5 4 2 3 3 1 3 3 6
11 11 12 11 13 10 10 10 10 9 10 7 7 8 7 5 6 10 9 5 5 5 8 4 3 3 4 3 3 4 4 6 6 5 5 5 4 3 3 3 3 5 5
12 10 10 10 10 10 9 4 7 5 12 11 13 9 5 10 14 15 13 11 13 16 4 4 4 4 5 5 5 4 3 6 6 6 5 5 6 6 7 4 5 5 5
14 12 10 10 10 10 9 9 8 2 4 9 11 14 13 12 14 18 17 14 16 9 4 4 6 7 5 6 6 5 5 6 7 7 7 5 6 5 5 3 5 5 5
13 16 12 11 11 11 11 10 9 9 8 4 3 5 10 10 16 18 17 12 3 3 4 6 6 6 6 6 6 6 7 6 4 6 6 5 5 7 7 8 5 5 5
12 11 12 11 11 11 10 9 9 9 8 5 3 2 5 6 7 5 19 10 10 9 7 5 5 6 5 7 7 8 10 9 8 7 6 7 7 8 7 5 5 6 6
12 15 13 11 10 11 10 10 9 9 8 8 7 8 5 4 4 6 10 9 10 11 11 9 6 6 7 9 9 10 9 9 8 7 7 8 7 7 6 8 5 5 4
10 8 12 10 11 12 11 11 10 10 9 9 10 9 13 9 8 8 10 11 10 11 9 8 8 7 8 9 10 11 11 10 9 8 8 6 7 8 9 5 5 5 5
11 11 11 12 11 11 11 10 10 10 10 10 9 8 13 10 8 9 10 12 12 10 8 10 9 9 10 12 13 13 13 12 10 10 9 12 10 8 6 5 5 4 5
10 11 12 10 10 10 8 10 10 10 10 10 9 7 9 11 10 10 10 10 9 8 8 10 11 10 10 12 10 11 13 13 13 12 14 10 5 6 8 6 6 5 5
10 12 12 11 9 9 10 11 10 11 11 10 9 9 10 10 12 11 8 8 10 10 11 11 11 14 13 10 6 5 3 8 9 9 13 10 8 8 7 8 7 7 5
8 8 9 10 10 10 10 9 10 9 9 10 9 9 10 10 10 8 9 9 9 8 8 9 9 15 17 19 17 16 12 8 9 9 9 10 11 10 9 7 7 5 5
5 7 7 6 7 8 9 9 11 11 10 8 7 7 8 9 7 6 7 8 9 8 9 8 12 17 19 19 21 20 17 11 9 9 8 10 9 8 8 9 10 7 7
Wind_Direction
179 157 167 118 96 93 82 59 61 75 165 119 132 125 125 122 115 100 95 109 112 114 114 117 111 111 106 99 99 96 89 88 115 92 83 111 104 133 158 161 157 183 192
154 129 143 126 114 91 71 72 62 88 89 103 106 104 103 102 108 118 118 120 126 113 110 124 123 110 103 108 104 100 102 95 122 118 105 98 95 141 162 167 181 188 198
144 123 135 132 114 109 88 83 90 85 85 113 118 118 119 117 111 102 109 122 129 129 124 129 131 130 118 113 104 109 109 106 89 110 98 90 113 149 129 131 166 248 248
134 133 140 156 130 134 132 115 101 102 99 104 112 112 108 108 115 110 108 104 114 119 112 121 135 133 129 130 117 120 117 110 114 113 108 111 116 96 112 147 159 51 258
138 142 158 162 135 133 135 126 104 80 79 103 103 91 105 115 126 122 121 114 114 117 111 117 111 119 115 114 129 118 115 124 135 132 107 114 144 113 155 157 155 240 286
146 155 163 152 144 149 141 137 111 86 74 93 93 93 85 90 123 119 121 124 124 126 119 113 121 116 111 121 118 117 149 143 151 144 147 148 165 147 143 166 152 114 332
152 155 160 153 152 159 145 137 116 99 101 100 106 114 114 119 127 123 128 140 138 132 130 132 134 141 150 146 155 220 213 193 181 148 158 171 173 197 139 154 175 170 198
158 160 157 149 152 144 132 152 129 113 116 105 106 108 111 114 137 150 139 132 125 133 141 146 149 168 173 158 176 220 206 153 168 185 170 173 190 172 180 169 172 154 59
166 167 163 153 155 143 130 140 130 122 115 110 115 112 113 120 156 143 119 121 126 131 136 154 145 160 184 174 157 136 95 71 43 50 130 134 87 58 107 116 84 91 53
169 174 164 158 157 154 148 144 143 139 141 134 119 116 122 122 158 158 136 128 120 119 127 165 169 158 166 171 148 147 128 166 131 90 60 60 78 68 60 78 135 112 134
168 170 164 161 161 163 155 145 139 142 133 137 138 144 128 133 117 145 143 140 148 147 152 151 142 152 156 165 158 149 156 141 116 111 97 87 77 77 86 88 94 113 127
166 168 171 169 168 161 160 155 150 136 144 157 151 154 172 153 146 122 149 138 147 145 161 157 149 173 126 129 122 131 128 119 101 82 89 84 100 86 75 82 74 63 59
163 171 173 171 167 164 163 163 149 156 150 163 166 178 186 170 163 144 133 153 164 141 154 155 141 128 108 86 107 116 104 100 115 110 111 88 86 131 115 81 72 87 76
167 172 169 169 166 170 172 171 171 174 165 164 172 183 189 165 167 190 164 140 135 101 103 110 121 107 81 112 99 83 106 127 132 128 122 129 128 68 74 70 86 83 81
164 168 172 174 175 172 179 177 181 193 183 177 187 181 173 187 205 179 171 175 175 147 112 97 104 103 127 132 93 101 103 122 121 126 128 115 108 128 129 124 107 84 94
165 170 174 171 175 177 171 159 32 205 186 180 168 166 203 198 165 178 185 170 150 149 105 140 173 169 171 161 150 137 132 131 138 134 132 142 148 141 122 106 117 110 112
176 170 169 169 175 169 176 180 186 11 148 209 189 189 184 191 186 178 182 171 163 148 145 171 179 180 173 165 164 151 150 162 148 150 150 143 128 103 83 98 105 100 93
174 166 169 175 178 176 180 185 183 186 195 208 181 217 221 208 191 188 174 124 132 269 171 179 190 175 166 164 157 153 154 143 142 141 139 140 126 137 141 126 118 116 107
168 174 174 176 179 179 177 178 182 182 192 171 134 151 99 81 117 133 161 181 190 206 214 200 179 169 162 160 157 156 156 159 159 154 144 139 143 138 119 87 104 112 119
185 176 172 173 172 177 179 179 181 186 190 192 188 200 146 125 162 164 187 202 196 202 203 199 180 160 159 159 156 154 151 156 158 149 147 144 132 119 116 121 135 130 117
183 168 172 170 178 182 184 188 188 190 193 197 204 195 178 176 189 182 187 203 203 206 202 185 166 159 160 161 157 160 160 158 157 147 142 131 131 139 120 135 131 116 112
181 172 178 182 180 188 190 189 190 192 195 198 206 196 181 204 194 195 198 204 204 197 178 169 166 168 166 167 169 166 162 159 153 146 143 146 156 134 121 134 117 107 100
176 174 185 189 188 181 181 189 190 195 195 195 203 184 178 205 206 207 209 195 180 169 163 161 159 160 167 163 172 175 165 160 153 148 145 140 141 121 131 128 120 109 104
173 179 182 188 182 185 185 190 197 197 194 197 189 182 189 202 210 210 193 178 177 172 172 171 166 159 144 127 96 79 119 136 133 137 132 125 129 130 122 119 123 123 124
168 171 177 182 186 189 186 191 200 194 195 198 191 187 196 201 210 193 179 173 158 152 150 153 154 149 143 131 121 111 102 94 115 125 113 128 127 131 127 125 131 118 111
140 166 170 169 183 191 194 196 204 203 200 192 187 189 187 191 175 144 145 141 135 126 123 121 128 122 120 114 119 120 113 104 104 114 141 123 132 130 127 129 126 124 124